Weather History for Columbia / Mount Pleasant, TN

Change the Weather History Date:

Thursday, April 4, 2013

  Actual Average (KBNA) Record (KBNA)
Temperature  
Mean Temperature 44 °F 56 °F  
Max Temperature 48 °F 67 °F 87 °F (1934)
Min Temperature 39 °F 44 °F 28 °F (1987)
Degree Days  
Heating Degree Days 22 10  
Month to date heating degree days 42  
Since 1 July heating degree days 3453  
Cooling Degree Days 0 1  
Month to date cooling degree days 4  
Year to date cooling degree days 12  
Moisture  
Dew Point 34 °F    
Average Humidity 75    
Maximum Humidity 100    
Minimum Humidity 40    
Precipitation  
Precipitation 0.00 in 0.12 in 1.71 in (2008)
Month to date precipitation 0.48  
Year to date precipitation 12.28  
Snow  
Snow 0.00 in 0.00 in 0.00 in (2002)
Month to date snowfall 0.0  
Since 1 July snowfall 6.3  
Snow Depth -    
Sea Level Pressure  
Sea Level Pressure 30.03 in    
Wind  
Wind Speed 4 mph (NE)    
Max Wind Speed 7 mph    
Max Gust Speed -    
Visibility 5 miles    
Events      
T = Trace of Precipitation, MM = Missing Value Source: NWS Daily Summary

Daily Weather History Graph

Daily Weather History Graph

Search for Another Location

Airport:

Trip Planner

Search our weather history database for the weather conditions in past years. The results will help you decide how hot, cold, wet, or windy it might be!

Date:

Astronomy

Apr. 04, 2013 Rise Set
Actual Time 6:30 AM CDT 7:13 PM CDT
Civil Twilight 6:04 AM CDT 7:38 PM CDT
Nautical Twilight 5:34 AM CDT 8:09 PM CDT
Astronomical Twilight 5:03 AM CDT 8:40 PM CDT
Moon 2:45 AM CDT (4/4) 1:41 PM CDT (4/4)
Length of Visible Light 13h 33m
Length of Day
12h 42m
Waning Crescent, 33% of the Moon is Illuminated
Apr 4
Waning Crescent
Apr 10
New
Apr 18
First Quarter
Apr 25
Full
May 2
Last Quarter

Hourly Weather History & Observations

Time (CDT) Temp. Windchill Dew Point Humidity Pressure Visibility Wind Dir Wind Speed Gust Speed Precip Events Conditions
12:35 AM 48.2 °F - 24.8 °F 40% 30.13 in 10.0 mi NE 4.6 mph - N/A   Overcast
12:55 AM 46.4 °F 44.3 °F 28.4 °F 50% 30.12 in 10.0 mi ENE 4.6 mph - N/A   Overcast
1:15 AM 46.4 °F 44.3 °F 26.6 °F 46% 30.11 in 10.0 mi ENE 4.6 mph - N/A   Mostly Cloudy
1:35 AM 46.4 °F 44.3 °F 26.6 °F 46% 30.11 in 10.0 mi NE 4.6 mph - N/A   Overcast
1:55 AM 48.2 °F - 26.6 °F 43% 30.10 in 10.0 mi NE 3.5 mph - N/A   Overcast
2:15 AM 48.2 °F - 26.6 °F 43% 30.10 in 10.0 mi NE 3.5 mph - N/A   Overcast
2:35 AM 46.4 °F - 30.2 °F 53% 30.09 in 10.0 mi Calm Calm - N/A   Overcast
2:55 AM 46.4 °F - 33.8 °F 62% 30.08 in 10.0 mi Calm Calm - N/A   Overcast
3:15 AM 46.4 °F 43.5 °F 30.2 °F 53% 30.07 in 10.0 mi NE 5.8 mph - N/A   Overcast
3:35 AM 44.6 °F 42.2 °F 33.8 °F 66% 30.06 in 10.0 mi NNE 4.6 mph - N/A   Overcast
3:55 AM 44.6 °F 43.1 °F 33.8 °F 66% 30.06 in 10.0 mi NE 3.5 mph - N/A   Overcast
4:15 AM 44.6 °F 43.1 °F 35.6 °F 71% 30.05 in 9.0 mi NE 3.5 mph - N/A   Overcast
4:35 AM 42.8 °F 40.1 °F 37.4 °F 81% 30.05 in 9.0 mi NE 4.6 mph - N/A   Overcast
4:55 AM 42.8 °F 41.1 °F 37.4 °F 81% 30.05 in 6.0 mi NE 3.5 mph - N/A   Overcast
5:15 AM 41.0 °F 39.0 °F 41.0 °F 100% 30.04 in 6.0 mi NE 3.5 mph - N/A   Overcast
5:35 AM 39.2 °F 35.0 °F 39.2 °F 100% 30.02 in 6.0 mi NE 5.8 mph - N/A   Mostly Cloudy
5:55 AM 39.2 °F 35.0 °F 39.2 °F 100% 30.03 in 8.0 mi NE 5.8 mph - N/A   Overcast
6:15 AM 39.2 °F 35.0 °F 39.2 °F 100% 30.03 in 10.0 mi NE 5.8 mph - N/A   Overcast
6:35 AM 39.2 °F - 39.2 °F 100% 30.05 in 2.5 mi Calm Calm - N/A   Overcast
6:55 AM 39.2 °F - 39.2 °F 100% 30.07 in 2.5 mi Calm Calm - N/A   Overcast
7:15 AM 39.2 °F 37.0 °F 39.2 °F 100% 30.07 in 2.0 mi North 3.5 mph - N/A   Overcast
7:35 AM 39.2 °F 35.9 °F 39.2 °F 100% 30.07 in 2.0 mi North 4.6 mph - N/A   Overcast
7:55 AM 39.2 °F 37.0 °F 39.2 °F 100% 30.07 in 1.8 mi NNE 3.5 mph - N/A   Overcast
8:15 AM 39.2 °F 35.9 °F 39.2 °F 100% 30.07 in 1.8 mi NE 4.6 mph - N/A   Overcast
8:35 AM - - - N/A% 30.06 in 2.0 mi NE 5.8 mph - N/A   Overcast
8:55 AM - - - N/A% 30.06 in 1.2 mi NE 4.6 mph - N/A   Overcast
9:15 AM - - - N/A% 30.06 in 2.5 mi NE 4.6 mph - N/A   Overcast
9:35 AM - - - N/A% 30.06 in 2.0 mi ENE 4.6 mph - N/A   Overcast
9:55 AM - - - N/A% 30.06 in 1.5 mi East 4.6 mph - N/A   Overcast
10:15 AM - - - N/A% 30.06 in 1.8 mi East 3.5 mph - N/A   Overcast
10:35 AM - - - N/A% 30.06 in 1.2 mi ENE 4.6 mph - N/A   Overcast
10:55 AM - - - N/A% 30.06 in 1.5 mi Calm Calm - N/A   Overcast
11:35 AM - - - N/A% 30.06 in 2.0 mi ENE 4.6 mph - N/A   Overcast
11:55 AM - - - N/A% 30.05 in 2.0 mi NE 3.5 mph - N/A   Overcast
12:15 PM - - - N/A% 30.05 in 3.0 mi ENE 3.5 mph - N/A   Overcast
12:35 PM - - - N/A% 30.05 in 1.8 mi Calm Calm - N/A   Overcast
12:55 PM - - - N/A% 30.04 in 2.0 mi East 4.6 mph - N/A   Overcast
1:15 PM - - - N/A% 30.03 in 2.5 mi ENE 4.6 mph - N/A   Overcast
1:35 PM - - - N/A% 30.02 in 6.0 mi ENE 5.8 mph - N/A   Overcast
1:55 PM - - - N/A% 30.02 in 8.0 mi East 3.5 mph - N/A   Overcast
2:15 PM - - - N/A% 30.01 in 7.0 mi East 5.8 mph - N/A   Overcast
2:35 PM - - - N/A% 30.00 in 7.0 mi ENE 6.9 mph - N/A   Overcast
2:55 PM - - - N/A% 30.00 in 10.0 mi ENE 4.6 mph - N/A   Overcast
3:15 PM - - - N/A% 29.99 in 5.0 mi ENE 4.6 mph - N/A   Overcast
3:35 PM - - - N/A% 29.99 in 7.0 mi East 5.8 mph - N/A   Overcast
3:55 PM - - - N/A% 29.99 in 6.0 mi East 4.6 mph - N/A   Overcast
4:15 PM - - - N/A% 29.98 in 6.0 mi ESE 4.6 mph - N/A   Overcast
4:35 PM - - - N/A% 29.98 in 10.0 mi East 4.6 mph - N/A   Overcast
4:55 PM - - - N/A% 29.97 in 8.0 mi ESE 5.8 mph - N/A   Overcast
6:35 PM - - - N/A% 29.98 in 5.0 mi Calm Calm - N/A   Overcast
6:55 PM - - - N/A% 29.98 in 10.0 mi Calm Calm - N/A   Overcast
7:15 PM - - - N/A% 29.98 in 10.0 mi Calm Calm - N/A   Overcast
7:35 PM - - - N/A% 29.98 in 9.0 mi Calm Calm - N/A   Overcast
7:55 PM - - - N/A% 29.98 in 2.5 mi Calm Calm - N/A   Overcast
8:15 PM - - - N/A% 29.98 in 2.0 mi NNE 3.5 mph - N/A   Overcast
8:35 PM - - - N/A% 29.99 in 2.5 mi Calm Calm - N/A   Overcast
8:55 PM - - - N/A% 29.99 in 2.5 mi NNE 3.5 mph - N/A   Overcast
9:15 PM - - - N/A% 29.99 in 2.5 mi NNE 3.5 mph - N/A   Overcast
9:35 PM - - - N/A% 29.99 in 2.5 mi NE 4.6 mph - N/A   Overcast
9:55 PM - - - N/A% 30.00 in 4.0 mi Calm Calm - N/A   Overcast
10:15 PM - - - N/A% 29.99 in 4.0 mi Calm Calm - N/A   Overcast
10:35 PM - - - N/A% 29.99 in 3.0 mi Calm Calm - N/A   Overcast
10:55 PM - - - N/A% 29.99 in 2.0 mi NNW 3.5 mph - N/A   Overcast
11:15 PM - - - N/A% 29.99 in 2.5 mi Calm Calm - N/A   Overcast
11:35 PM - - - N/A% 30.00 in 2.5 mi NNW 3.5 mph - N/A   Overcast
11:55 PM - - - N/A% 30.00 in 2.5 mi Calm Calm - N/A   Overcast